Regional Weather Roundup
Issued by NWS

Home | Current Version | Previous Version | Text Only | Print | Product List | Glossary On
Versions: 1 2 3 4 5 6 7 8 9 10 11 12 13 14 15 16 17 18 19 20 21 22 23 24 25 26 27 28 29 30 31 32 33 34 35 36 37 38 39 40 41 42 43 44 45 46 47 48 49 50
000
ASUS44 KOUN 311810
RWROK

WEATHER ROUNDUP FOR OKLAHOMA
NATIONAL WEATHER SERVICE NORMAN OK
100 PM CDT THU JUL 31 2014

NOTE: "FAIR" INDICATES FEW OR NO CLOUDS BELOW 12,000 FEET WITH NO
      SIGNIFICANT WEATHER AND/OR OBSTRUCTIONS TO VISIBILITY.

OKZ001>007-009>012-014-015-017-311900-
NORTHWEST OKLAHOMA AND THE PANHANDLE

CITY           SKY/WX    TMP DP  RH WIND       PRES   REMARKS
GAGE           SUNNY     77  54  44 N10       30.17F
6HR MIN TEMP:  57; 6HR MAX TEMP:  77;

ENID/WOODRING  CLOUDY    75  66  73 N10       30.11F
$$

OKZ016-021>023-033>039-044-045-311900-
SOUTHWEST OKLAHOMA

CITY           SKY/WX    TMP DP  RH WIND       PRES   REMARKS
LAWTON/REGL    CLOUDY    74  65  73 N15       30.09S
6HR MIN TEMP:  68; 6HR MAX TEMP:  75;

LAWTON/FT SILL CLOUDY    73  66  78 N14       30.08S
FREDERICK      CLOUDY    71  67  87 N15       30.09S
CLINTON        CLOUDY    71  62  73 NE13      30.16F
HOBART         CLOUDY    72  63  73 NE14      30.14S
ALTUS AFB      CLOUDY    74  65  74 N13       30.12F
$$

OKZ018>020-024>031-311900-
CENTRAL OKLAHOMA

CITY           SKY/WX    TMP DP  RH WIND       PRES   REMARKS
OKLAHOMA CITY  CLOUDY    74  66  76 N13       30.09S
6HR MIN TEMP:  68; 6HR MAX TEMP:  75; 6HR PCP:  0.03;

OKC/WILEY POST CLOUDY    70  67  90 N9        30.10S
OKC/TINKER AFB PTSUNNY   72  68  89 N13       30.09S
STILLWATER     CLOUDY    72  66  83 NE10      30.10S
GUTHRIE        CLOUDY    69  66  90 NE6       30.11S FOG
$$

OKZ008-013-054>072-311900-
NORTHEAST OKLAHOMA

CITY           SKY/WX    TMP DP  RH WIND       PRES   REMARKS
TULSA          CLOUDY    72  69  90 NE6       30.08S
6HR MIN TEMP:  68; 6HR MAX TEMP:  72; 6HR PCP:  0.17;

TULSA/JONES    CLOUDY    73  68  84 NE3       30.08F
PONCA CITY     CLOUDY    75  64  68 NE10      30.11S
BARTLESVILLE   CLOUDY    75  67  76 NE6       30.11S
MUSKOGEE       CLOUDY    69  65  86 SE9       30.10S
$$

OKZ032-040>043-046>053-073>077-311900-
SOUTH CENTRAL/SOUTHEAST OKLAHOMA

CITY           SKY/WX    TMP DP  RH WIND       PRES   REMARKS
ARDMORE/DWNTWN CLOUDY    70  64  83 N5        30.04R
MCALESTER      CLOUDY    69  64  84 E8        30.06S
$$



USA.gov is the U.S. government's official web portal to all federal, state and local government web resources and services.